Tracking 31023 objects as of 19-Jul-2025
HD Live streaming from Space Station
objects crossing your sky now

COSMOS 839 DEB

Track COSMOS 839 DEB now!
10-day predictions


NORAD ID: 18471
Int'l Code: 1976-067BN
Perigee: 828.8 km
Apogee: 2,362.4 km
Inclination: 65.8 °
Period: 117.9 minutes
Semi major axis: 7966 km
RCS: 0.0852 m2 (small)
Launch date: July 8, 1976
Source: Commonwealth of Independent States (former USSR) (CIS)
Launch site: PLESETSK MISSILE AND SPACE COMPLEX (PKMTR)

Note: This is SATELLITE DEBRIS
Your satellite tracking list
Your tracking list is empty




NASA's NSSDC Master Catalog

Two Line Element Set (TLE):
1 18471U 76067BN  25199.47044626 -.00000272  00000-0 -46113-3 0  9997
2 18471  65.7570 340.6619 0962466  25.5157  33.8153 12.20936242686431
Source of the keplerian elements: AFSPC